Location: Spruce Knob
(38.6995°N, 79.5330°W)
Time: 11:22:36
(UTC-05:00)

Envisat - Pass Details

Date: 30 November 2021
Orbit: 764 x 766 km, 98.2° (Epoch: 23 January)

Event Time Altitude Azimuth Distance (km) Brightness Sun altitude
Rises 17:36:20 0° 204° (SSW) 3,214 7.0 -7.8°
Reaches altitude 10° 17:39:16 10° 222° (SW) 2,294 6.6 -8.3°
Maximum altitude 17:42:50 19° 267° (W) 1,749 6.0 -9.0°
Drops below altitude 10° 17:46:25 10° 312° (NW) 2,306 5.9 -9.6°
Sets 17:49:23 0° 330° (NNW) 3,237 6.4 -10.2°
